contact:dominique.lefevre@mio.osupytheas.fr, maurice.libes@osupytheas.fr, didier.mallarino@osupytheas.fr
Project:EMSO http://www.emso-fr.org/EMSO-France
Depth: 2436.0 m
Title:EMSO Ligure Ouest : Data MII capteur MICROCAT
DateTime_Computer,Latitude,Longitude,Temperature,Conductivity,Pressure,DateTime_Instrument
DateTime_Computer,Latitude,Longitude,degC,S m-1,dbar,DateTime_Instrument
2020-06-01T00:00:24Z,42.805,6.029,13.2967,4.59968,2470.077,2020-6-01T02:01:07Z
2020-06-01T00:03:27Z,42.805,6.029,13.2968,4.59968,2470.077,2020-6-01T02:04:10Z
2020-06-01T00:06:30Z,42.805,6.029,13.2969,4.59969,2470.04,2020-6-01T02:07:14Z
2020-06-01T00:09:34Z,42.805,6.029,13.2965,4.59968,2470.053,2020-6-01T02:10:17Z
2020-06-01T00:12:37Z,42.805,6.029,13.2968,4.59969,2470.053,2020-6-01T02:13:20Z
2020-06-01T00:15:40Z,42.805,6.029,13.2967,4.59969,2470.063,2020-6-01T02:16:23Z
2020-06-01T00:18:43Z,42.805,6.029,13.2968,4.59969,2470.087,2020-6-01T02:19:26Z
2020-06-01T00:21:46Z,42.805,6.029,13.2967,4.59969,2470.077,2020-6-01T02:22:30Z
2020-06-01T00:24:50Z,42.805,6.029,13.2967,4.59968,2470.077,2020-6-01T02:25:33Z
2020-06-01T00:27:53Z,42.805,6.029,13.2968,4.59969,2470.1,2020-6-01T02:28:36Z
2020-06-01T00:30:56Z,42.805,6.029,13.2968,4.59970,2470.087,2020-6-01T02:31:40Z
2020-06-01T00:33:59Z,42.805,6.029,13.2966,4.59968,2470.124,2020-6-01T02:34:43Z
2020-06-01T00:37:03Z,42.805,6.029,13.2967,4.59969,2470.087,2020-6-01T02:37:46Z
2020-06-01T00:40:06Z,42.805,6.029,13.2971,4.59968,2470.04,2020-6-01T02:40:49Z
2020-06-01T00:43:09Z,42.805,6.029,13.2968,4.59968,2470.087,2020-6-01T02:43:52Z
2020-06-01T00:46:12Z,42.805,6.029,13.2966,4.59968,2470.087,2020-6-01T02:46:56Z
2020-06-01T00:49:16Z,42.805,6.029,13.2968,4.59968,2470.063,2020-6-01T02:49:59Z
2020-06-01T00:52:19Z,42.805,6.029,13.2967,4.59969,2470.087,2020-6-01T02:53:02Z
2020-06-01T00:55:22Z,42.805,6.029,13.2967,4.59968,2470.087,2020-6-01T02:56:05Z
2020-06-01T01:18:08Z,42.805,6.029,13.2967,4.59968,2470.087,2020-6-01T03:18:51Z
2020-06-01T01:21:11Z,42.805,6.029,13.2968,4.59968,2470.11,2020-6-01T03:21:54Z
2020-06-01T01:24:14Z,42.805,6.029,13.2964,4.59969,2470.124,2020-6-01T03:24:58Z
2020-06-01T01:27:18Z,42.805,6.029,13.2964,4.59969,2470.133,2020-6-01T03:28:01Z
2020-06-01T01:30:21Z,42.805,6.029,13.2965,4.59971,2470.077,2020-6-01T03:31:04Z
2020-06-01T01:33:24Z,42.805,6.029,13.2970,4.59968,2470.087,2020-6-01T03:34:07Z
2020-06-01T01:36:27Z,42.805,6.029,13.2968,4.59970,2470.133,2020-6-01T03:37:11Z
2020-06-01T01:39:31Z,42.805,6.029,13.2971,4.59971,2470.11,2020-6-01T03:40:14Z
2020-06-01T01:42:34Z,42.805,6.029,13.2965,4.59970,2470.11,2020-6-01T03:43:17Z
2020-06-01T01:45:37Z,42.805,6.029,13.2968,4.59970,2470.124,2020-6-01T03:46:20Z
2020-06-01T01:48:40Z,42.805,6.029,13.2970,4.59970,2470.133,2020-6-01T03:49:23Z
2020-06-01T01:51:43Z,42.805,6.029,13.2969,4.59970,2470.133,2020-6-01T03:52:27Z
2020-06-01T01:54:47Z,42.805,6.029,13.2969,4.59969,2470.124,2020-6-01T03:55:30Z
2020-06-01T01:57:50Z,42.805,6.029,13.2970,4.59969,2470.133,2020-6-01T03:58:33Z
2020-06-01T02:00:53Z,42.805,6.029,13.2968,4.59970,2470.087,2020-6-01T04:01:36Z
2020-06-01T02:03:56Z,42.805,6.029,13.2969,4.59970,2470.124,2020-6-01T04:04:40Z
2020-06-01T02:07:00Z,42.805,6.029,13.2970,4.59970,2470.087,2020-6-01T04:07:43Z
2020-06-01T02:10:03Z,42.805,6.029,13.2968,4.59970,2470.133,2020-6-01T04:10:46Z
2020-06-01T02:13:06Z,42.805,6.029,13.2967,4.59972,2470.133,2020-6-01T04:13:49Z
2020-06-01T02:16:09Z,42.805,6.029,13.2967,4.59971,2470.124,2020-6-01T04:16:53Z
2020-06-01T02:19:13Z,42.805,6.029,13.2965,4.59971,2470.11,2020-6-01T04:19:56Z
2020-06-01T02:22:16Z,42.805,6.029,13.2971,4.59972,2470.124,2020-6-01T04:22:59Z
2020-06-01T02:25:19Z,42.805,6.029,13.2968,4.59971,2470.133,2020-6-01T04:26:02Z
2020-06-01T02:28:23Z,42.805,6.029,13.2969,4.59971,2470.147,2020-6-01T04:29:06Z
2020-06-01T02:31:26Z,42.805,6.029,13.2968,4.59971,2470.133,2020-6-01T04:32:09Z
2020-06-01T02:34:29Z,42.805,6.029,13.2967,4.59970,2470.11,2020-6-01T04:35:12Z
2020-06-01T02:37:32Z,42.805,6.029,13.2969,4.59970,2470.124,2020-6-01T04:38:15Z
2020-06-01T02:40:35Z,42.805,6.029,13.2968,4.59971,2470.171,2020-6-01T04:41:19Z
2020-06-01T02:43:39Z,42.805,6.029,13.2968,4.59970,2470.156,2020-6-01T04:44:22Z
2020-06-01T02:46:42Z,42.805,6.029,13.2970,4.59970,2470.11,2020-6-01T04:47:25Z
2020-06-01T02:49:45Z,42.805,6.029,13.2967,4.59971,2470.124,2020-6-01T04:50:28Z
2020-06-01T02:52:48Z,42.805,6.029,13.2968,4.59970,2470.133,2020-6-01T04:53:32Z
2020-06-01T02:55:51Z,42.805,6.029,13.2968,4.59971,2470.133,2020-6-01T04:56:35Z
2020-06-01T02:58:55Z,42.805,6.029,13.2968,4.59971,2470.156,2020-6-01T04:59:38Z
2020-06-01T03:01:58Z,42.805,6.029,13.2967,4.59971,2470.087,2020-6-01T05:02:41Z
2020-06-01T03:05:01Z,42.805,6.029,13.2967,4.59972,2470.133,2020-6-01T05:05:45Z
2020-06-01T03:08:05Z,42.805,6.029,13.2969,4.59972,2470.11,2020-6-01T05:08:48Z
2020-06-01T03:11:08Z,42.805,6.029,13.2969,4.59971,2470.11,2020-6-01T05:11:51Z
2020-06-01T03:14:11Z,42.805,6.029,13.2966,4.59971,2470.11,2020-6-01T05:14:54Z
2020-06-01T03:17:14Z,42.805,6.029,13.2971,4.59972,2470.133,2020-6-01T05:17:58Z
2020-06-01T03:20:17Z,42.805,6.029,13.2969,4.59970,2470.147,2020-6-01T05:21:01Z
2020-06-01T03:23:21Z,42.805,6.029,13.2966,4.59971,2470.11,2020-6-01T05:24:04Z
2020-06-01T03:26:24Z,42.805,6.029,13.2970,4.59971,2470.143,2020-6-01T05:27:07Z
2020-06-01T03:29:27Z,42.805,6.029,13.2968,4.59970,2470.11,2020-6-01T05:30:10Z
2020-06-01T03:32:30Z,42.805,6.029,13.2967,4.59971,2470.11,2020-6-01T05:33:14Z
2020-06-01T03:35:34Z,42.805,6.029,13.2970,4.59971,2470.156,2020-6-01T05:36:17Z
2020-06-01T03:38:37Z,42.805,6.029,13.2967,4.59971,2470.147,2020-6-01T05:39:20Z
2020-06-01T03:41:40Z,42.805,6.029,13.2967,4.59971,2470.11,2020-6-01T05:42:23Z
2020-06-01T03:44:43Z,42.805,6.029,13.2969,4.59971,2470.133,2020-6-01T05:45:27Z
2020-06-01T03:47:47Z,42.805,6.029,13.2968,4.59969,2470.133,2020-6-01T05:48:30Z
2020-06-01T03:50:50Z,42.805,6.029,13.2968,4.59972,2470.11,2020-6-01T05:51:33Z
2020-06-01T03:53:53Z,42.805,6.029,13.2968,4.59972,2470.156,2020-6-01T05:54:37Z
2020-06-01T03:56:57Z,42.805,6.029,13.2968,4.59971,2470.156,2020-6-01T05:57:40Z
2020-06-01T04:00:00Z,42.805,6.029,13.2970,4.59971,2470.11,2020-6-01T06:00:43Z
2020-06-01T04:03:03Z,42.805,6.029,13.2968,4.59970,2470.124,2020-6-01T06:03:46Z
2020-06-01T04:06:06Z,42.805,6.029,13.2965,4.59969,2470.133,2020-6-01T06:06:50Z
2020-06-01T04:09:09Z,42.805,6.029,13.2967,4.59972,2470.11,2020-6-01T06:09:53Z
2020-06-01T04:12:13Z,42.805,6.029,13.2967,4.59970,2470.147,2020-6-01T06:12:56Z
2020-06-01T04:15:16Z,42.805,6.029,13.2969,4.59970,2470.124,2020-6-01T06:15:59Z
2020-06-01T04:18:19Z,42.805,6.029,13.2968,4.59969,2470.133,2020-6-01T06:19:02Z
2020-06-01T04:21:22Z,42.805,6.029,13.2965,4.59970,2470.119,2020-6-01T06:22:06Z
2020-06-01T04:24:26Z,42.805,6.029,13.2970,4.59970,2470.156,2020-6-01T06:25:09Z
2020-06-01T04:27:29Z,42.805,6.029,13.2968,4.59971,2470.087,2020-6-01T06:28:12Z
2020-06-01T04:30:32Z,42.805,6.029,13.2967,4.59970,2470.11,2020-6-01T06:31:15Z
2020-06-01T04:33:35Z,42.805,6.029,13.2970,4.59970,2470.11,2020-6-01T06:34:19Z
2020-06-01T04:36:39Z,42.805,6.029,13.2969,4.59970,2470.11,2020-6-01T06:37:22Z
2020-06-01T04:39:42Z,42.805,6.029,13.2968,4.59970,2470.1,2020-6-01T06:40:25Z
2020-06-01T04:42:45Z,42.805,6.029,13.2968,4.59970,2470.124,2020-6-01T06:43:28Z
2020-06-01T04:45:48Z,42.805,6.029,13.2967,4.59971,2470.133,2020-6-01T06:46:32Z
2020-06-01T04:48:52Z,42.805,6.029,13.2967,4.59970,2470.124,2020-6-01T06:49:35Z
2020-06-01T04:51:55Z,42.805,6.029,13.2965,4.59970,2470.087,2020-6-01T06:52:38Z
2020-06-01T04:54:58Z,42.805,6.029,13.2967,4.59971,2470.11,2020-6-01T06:55:41Z
2020-06-01T04:58:01Z,42.805,6.029,13.2966,4.59970,2470.147,2020-6-01T06:58:45Z
2020-06-01T05:01:05Z,42.805,6.029,13.2968,4.59969,2470.133,2020-6-01T07:01:48Z
2020-06-01T05:04:08Z,42.805,6.029,13.2967,4.59971,2470.11,2020-6-01T07:04:51Z
2020-06-01T05:07:11Z,42.805,6.029,13.2972,4.59970,2470.087,2020-6-01T07:07:54Z
2020-06-01T05:10:14Z,42.805,6.029,13.2971,4.59970,2470.147,2020-6-01T07:10:57Z
2020-06-01T05:13:17Z,42.805,6.029,13.2967,4.59969,2470.124,2020-6-01T07:14:01Z
2020-06-01T05:16:21Z,42.805,6.029,13.2967,4.59971,2470.11,2020-6-01T07:17:04Z
2020-06-01T05:19:24Z,42.805,6.029,13.2965,4.59971,2470.11,2020-6-01T07:20:07Z
2020-06-01T05:22:27Z,42.805,6.029,13.2971,4.59971,2470.11,2020-6-01T07:23:10Z
2020-06-01T05:25:30Z,42.805,6.029,13.2970,4.59970,2470.124,2020-6-01T07:26:14Z
2020-06-01T05:28:33Z,42.805,6.029,13.2969,4.59970,2470.087,2020-6-01T07:29:17Z
2020-06-01T05:31:37Z,42.805,6.029,13.2967,4.59970,2470.087,2020-6-01T07:32:20Z
2020-06-01T05:34:40Z,42.805,6.029,13.2969,4.59969,2470.124,2020-6-01T07:35:23Z
2020-06-01T05:37:43Z,42.805,6.029,13.2966,4.59969,2470.124,2020-6-01T07:38:27Z
2020-06-01T05:40:46Z,42.805,6.029,13.2968,4.59968,2470.087,2020-6-01T07:41:30Z
2020-06-01T05:43:50Z,42.805,6.029,13.2968,4.59970,2470.087,2020-6-01T07:44:33Z
2020-06-01T05:46:53Z,42.805,6.029,13.2968,4.59969,2470.096,2020-6-01T07:47:36Z
2020-06-01T05:49:56Z,42.805,6.029,13.2966,4.59970,2470.087,2020-6-01T07:50:39Z
2020-06-01T05:52:59Z,42.805,6.029,13.2969,4.59970,2470.11,2020-6-01T07:53:43Z
2020-06-01T05:56:03Z,42.805,6.029,13.2969,4.59970,2470.124,2020-6-01T07:56:46Z
2020-06-01T05:59:06Z,42.805,6.029,13.2967,4.59970,2470.1,2020-6-01T07:59:49Z
2020-06-01T06:02:09Z,42.805,6.029,13.2971,4.59971,2470.11,2020-6-01T08:02:52Z
2020-06-01T06:05:12Z,42.805,6.029,13.2968,4.59969,2470.063,2020-6-01T08:05:56Z
2020-06-01T06:08:15Z,42.805,6.029,13.2967,4.59969,2470.063,2020-6-01T08:08:59Z
2020-06-01T06:11:19Z,42.805,6.029,13.2973,4.59971,2470.026,2020-6-01T08:12:02Z
2020-06-01T06:14:22Z,42.805,6.029,13.2967,4.59970,2470.04,2020-6-01T08:15:05Z
2020-06-01T06:17:25Z,42.805,6.029,13.2967,4.59970,2470.053,2020-6-01T08:18:08Z
2020-06-01T06:20:28Z,42.805,6.029,13.2969,4.59969,2470.017,2020-6-01T08:21:12Z
2020-06-01T06:23:32Z,42.805,6.029,13.2965,4.59969,2470.053,2020-6-01T08:24:15Z
2020-06-01T06:26:35Z,42.805,6.029,13.2966,4.59969,2470.063,2020-6-01T08:27:18Z
2020-06-01T06:29:38Z,42.805,6.029,13.2966,4.59970,2470.124,2020-6-01T08:30:22Z
2020-06-01T06:32:42Z,42.805,6.029,13.2972,4.59970,2470.087,2020-6-01T08:33:25Z
2020-06-01T06:35:45Z,42.805,6.029,13.2969,4.59970,2470.087,2020-6-01T08:36:28Z
2020-06-01T06:38:48Z,42.805,6.029,13.2968,4.59970,2470.053,2020-6-01T08:39:31Z
2020-06-01T06:41:51Z,42.805,6.029,13.2969,4.59969,2470.087,2020-6-01T08:42:34Z
2020-06-01T06:44:54Z,42.805,6.029,13.2967,4.59969,2470.1,2020-6-01T08:45:38Z
2020-06-01T06:47:58Z,42.805,6.029,13.2969,4.59969,2470.087,2020-6-01T08:48:41Z
2020-06-01T06:51:01Z,42.805,6.029,13.2967,4.59969,2470.063,2020-6-01T08:51:44Z
2020-06-01T06:54:04Z,42.805,6.029,13.2970,4.59971,2470.04,2020-6-01T08:54:47Z
2020-06-01T06:57:07Z,42.805,6.029,13.2968,4.59969,2470.053,2020-6-01T08:57:51Z
2020-06-01T07:00:10Z,42.805,6.029,13.2966,4.59970,2470.087,2020-6-01T09:00:54Z
2020-06-01T07:03:14Z,42.805,6.029,13.2967,4.59969,2470.017,2020-6-01T09:03:57Z
2020-06-01T07:06:17Z,42.805,6.029,13.2968,4.59971,2470.077,2020-6-01T09:07:00Z
2020-06-01T07:09:20Z,42.805,6.029,13.2964,4.59969,2470.04,2020-6-01T09:10:04Z
2020-06-01T07:12:24Z,42.805,6.029,13.2967,4.59968,2470.087,2020-6-01T09:13:07Z
2020-06-01T07:15:27Z,42.805,6.029,13.2967,4.59970,2470.017,2020-6-01T09:16:10Z
2020-06-01T07:18:30Z,42.805,6.029,13.2970,4.59969,2470.03,2020-6-01T09:19:13Z
2020-06-01T07:21:33Z,42.805,6.029,13.2971,4.59969,2470.007,2020-6-01T09:22:17Z
2020-06-01T07:24:36Z,42.805,6.029,13.2969,4.59970,2470.063,2020-6-01T09:25:20Z
2020-06-01T07:27:40Z,42.805,6.029,13.2969,4.59969,2470.03,2020-6-01T09:28:23Z
2020-06-01T07:30:43Z,42.805,6.029,13.2968,4.59968,2470.03,2020-6-01T09:31:26Z
2020-06-01T07:33:46Z,42.805,6.029,13.2968,4.59970,2469.993,2020-6-01T09:34:30Z
2020-06-01T07:36:49Z,42.805,6.029,13.2970,4.59970,2470.03,2020-6-01T09:37:33Z
2020-06-01T07:39:53Z,42.805,6.029,13.2969,4.59969,2470.007,2020-6-01T09:40:36Z
2020-06-01T07:42:56Z,42.805,6.029,13.2968,4.59970,2470.04,2020-6-01T09:43:39Z
2020-06-01T07:45:59Z,42.805,6.029,13.2969,4.59970,2470.03,2020-6-01T09:46:42Z
2020-06-01T07:49:02Z,42.805,6.029,13.2971,4.59969,2470.04,2020-6-01T09:49:46Z
2020-06-01T07:52:06Z,42.805,6.029,13.2967,4.59969,2469.993,2020-6-01T09:52:49Z
2020-06-01T07:55:09Z,42.805,6.029,13.2968,4.59970,2470.017,2020-6-01T09:55:52Z
2020-06-01T07:58:12Z,42.805,6.029,13.2976,4.59970,2470.007,2020-6-01T09:58:56Z
2020-06-01T08:01:16Z,42.805,6.029,13.2970,4.59971,2469.993,2020-6-01T10:01:59Z
2020-06-01T08:04:19Z,42.805,6.029,13.2971,4.59971,2469.993,2020-6-01T10:05:02Z
2020-06-01T08:07:22Z,42.805,6.029,13.2967,4.59971,2470.03,2020-6-01T10:08:06Z
2020-06-01T08:10:26Z,42.805,6.029,13.2968,4.59970,2470.03,2020-6-01T10:11:09Z
2020-06-01T08:13:29Z,42.805,6.029,13.2969,4.59970,2469.993,2020-6-01T10:14:12Z
2020-06-01T08:16:32Z,42.805,6.029,13.2968,4.59971,2469.993,2020-6-01T10:17:15Z
2020-06-01T08:19:35Z,42.805,6.029,13.2971,4.59970,2469.96,2020-6-01T10:20:19Z
2020-06-01T08:22:39Z,42.805,6.029,13.2967,4.59970,2469.984,2020-6-01T10:23:22Z
2020-06-01T08:25:42Z,42.805,6.029,13.2970,4.59970,2470.007,2020-6-01T10:26:25Z
2020-06-01T08:28:45Z,42.805,6.029,13.2967,4.59971,2470.007,2020-6-01T10:29:29Z
2020-06-01T08:31:48Z,42.805,6.029,13.2969,4.59970,2469.984,2020-6-01T10:32:32Z
2020-06-01T08:34:52Z,42.805,6.029,13.2968,4.59969,2469.97,2020-6-01T10:35:35Z
2020-06-01T08:37:55Z,42.805,6.029,13.2970,4.59971,2469.97,2020-6-01T10:38:38Z
2020-06-01T08:40:58Z,42.805,6.029,13.2969,4.59970,2470.007,2020-6-01T10:41:41Z
2020-06-01T08:44:01Z,42.805,6.029,13.2967,4.59971,2469.947,2020-6-01T10:44:45Z
2020-06-01T08:47:05Z,42.805,6.029,13.2969,4.59970,2469.96,2020-6-01T10:47:48Z
2020-06-01T08:50:08Z,42.805,6.029,13.2971,4.59970,2469.984,2020-6-01T10:50:51Z
2020-06-01T08:53:11Z,42.805,6.029,13.2964,4.59970,2469.97,2020-6-01T10:53:54Z
2020-06-01T08:56:15Z,42.805,6.029,13.2967,4.59970,2469.993,2020-6-01T10:56:58Z
2020-06-01T08:59:18Z,42.805,6.029,13.2968,4.59970,2469.97,2020-6-01T11:00:01Z
2020-06-01T09:02:21Z,42.805,6.029,13.2967,4.59969,2469.993,2020-6-01T11:03:04Z
2020-06-01T09:05:24Z,42.805,6.029,13.2968,4.59969,2469.97,2020-6-01T11:06:07Z
2020-06-01T09:08:27Z,42.805,6.029,13.2969,4.59970,2469.984,2020-6-01T11:09:11Z
2020-06-01T09:11:31Z,42.805,6.029,13.2971,4.59969,2469.947,2020-6-01T11:12:14Z
2020-06-01T09:14:34Z,42.805,6.029,13.2968,4.59970,2469.923,2020-6-01T11:15:17Z
2020-06-01T09:17:37Z,42.805,6.029,13.2971,4.59971,2469.947,2020-6-01T11:18:20Z
2020-06-01T09:20:40Z,42.805,6.029,13.2967,4.59970,2469.947,2020-6-01T11:21:24Z
2020-06-01T09:23:43Z,42.805,6.029,13.2969,4.59970,2469.96,2020-6-01T11:24:27Z
2020-06-01T09:26:47Z,42.805,6.029,13.2971,4.59970,2469.923,2020-6-01T11:27:30Z
2020-06-01T09:29:50Z,42.805,6.029,13.2971,4.59970,2469.947,2020-6-01T11:30:33Z
2020-06-01T09:32:53Z,42.805,6.029,13.2973,4.59970,2469.97,2020-6-01T11:33:36Z
2020-06-01T09:35:56Z,42.805,6.029,13.2974,4.59972,2469.923,2020-6-01T11:36:40Z
2020-06-01T09:39:00Z,42.805,6.029,13.2968,4.59971,2469.947,2020-6-01T11:39:43Z
2020-06-01T09:42:03Z,42.805,6.029,13.2971,4.59971,2469.947,2020-6-01T11:42:46Z
2020-06-01T09:45:06Z,42.805,6.029,13.2973,4.59971,2469.947,2020-6-01T11:45:49Z
2020-06-01T09:48:09Z,42.805,6.029,13.2971,4.59970,2469.947,2020-6-01T11:48:53Z
2020-06-01T09:51:12Z,42.805,6.029,13.2968,4.59970,2469.97,2020-6-01T11:51:56Z
2020-06-01T09:54:16Z,42.805,6.029,13.2965,4.59971,2469.97,2020-6-01T11:54:59Z
2020-06-01T09:57:19Z,42.805,6.029,13.2974,4.59972,2469.947,2020-6-01T11:58:02Z
2020-06-01T10:00:22Z,42.805,6.029,13.2967,4.59970,2469.937,2020-6-01T12:01:05Z
2020-06-01T10:03:25Z,42.805,6.029,13.2972,4.59970,2469.923,2020-6-01T12:04:09Z
2020-06-01T10:06:29Z,42.805,6.029,13.2971,4.59969,2469.96,2020-6-01T12:07:12Z
2020-06-01T10:09:32Z,42.805,6.029,13.2970,4.59972,2469.97,2020-6-01T12:10:15Z
2020-06-01T10:12:35Z,42.805,6.029,13.2967,4.59969,2469.923,2020-6-01T12:13:18Z
2020-06-01T10:15:38Z,42.805,6.029,13.2968,4.59971,2469.984,2020-6-01T12:16:22Z
2020-06-01T10:18:42Z,42.805,6.029,13.2967,4.59971,2469.97,2020-6-01T12:19:25Z
2020-06-01T10:21:45Z,42.805,6.029,13.2968,4.59971,2469.923,2020-6-01T12:22:28Z
2020-06-01T10:24:48Z,42.805,6.029,13.2970,4.59972,2469.9,2020-6-01T12:25:31Z
2020-06-01T10:27:51Z,42.805,6.029,13.2970,4.59971,2469.96,2020-6-01T12:28:35Z
2020-06-01T10:30:55Z,42.805,6.029,13.2967,4.59971,2469.947,2020-6-01T12:31:38Z
2020-06-01T10:33:58Z,42.805,6.029,13.2970,4.59971,2469.923,2020-6-01T12:34:41Z
2020-06-01T10:37:01Z,42.805,6.029,13.2968,4.59972,2469.947,2020-6-01T12:37:44Z
2020-06-01T10:40:04Z,42.805,6.029,13.2971,4.59971,2469.96,2020-6-01T12:40:48Z
2020-06-01T10:43:08Z,42.805,6.029,13.2968,4.59971,2469.947,2020-6-01T12:43:51Z
2020-06-01T10:46:11Z,42.805,6.029,13.2971,4.59972,2469.984,2020-6-01T12:46:54Z
2020-06-01T10:49:14Z,42.805,6.029,13.2968,4.59971,2469.96,2020-6-01T12:49:57Z
2020-06-01T10:52:17Z,42.805,6.029,13.2971,4.59972,2469.947,2020-6-01T12:53:01Z
2020-06-01T10:55:21Z,42.805,6.029,13.2973,4.59971,2469.923,2020-6-01T12:56:04Z
2020-06-01T10:58:24Z,42.805,6.029,13.2969,4.59971,2469.96,2020-6-01T12:59:07Z
2020-06-01T11:01:27Z,42.805,6.029,13.2969,4.59971,2469.96,2020-6-01T13:02:10Z
2020-06-01T11:04:30Z,42.805,6.029,13.2970,4.59972,2469.937,2020-6-01T13:05:13Z
2020-06-01T11:07:33Z,42.805,6.029,13.2970,4.59971,2469.947,2020-6-01T13:08:17Z
2020-06-01T11:10:37Z,42.805,6.029,13.2971,4.59971,2469.97,2020-6-01T13:11:20Z
2020-06-01T11:13:40Z,42.805,6.029,13.2973,4.59971,2469.96,2020-6-01T13:14:23Z
2020-06-01T11:16:43Z,42.805,6.029,13.2972,4.59971,2469.9,2020-6-01T13:17:26Z
2020-06-01T11:19:46Z,42.805,6.029,13.2969,4.59971,2469.947,2020-6-01T13:20:30Z
2020-06-01T11:22:50Z,42.805,6.029,13.2972,4.59972,2469.923,2020-6-01T13:23:33Z
2020-06-01T11:25:53Z,42.805,6.029,13.2970,4.59971,2469.96,2020-6-01T13:26:36Z
2020-06-01T11:28:56Z,42.805,6.029,13.2971,4.59971,2469.97,2020-6-01T13:29:40Z
2020-06-01T11:32:00Z,42.805,6.029,13.2969,4.59971,2469.947,2020-6-01T13:32:43Z
2020-06-01T11:35:03Z,42.805,6.029,13.2972,4.59971,2469.97,2020-6-01T13:35:46Z
2020-06-01T11:38:06Z,42.805,6.029,13.2971,4.59971,2469.97,2020-6-01T13:38:49Z
2020-06-01T11:41:09Z,42.805,6.029,13.2971,4.59971,2469.993,2020-6-01T13:41:53Z
2020-06-01T11:44:13Z,42.805,6.029,13.2972,4.59971,2469.984,2020-6-01T13:44:56Z
2020-06-01T11:47:16Z,42.805,6.029,13.2969,4.59971,2469.947,2020-6-01T13:47:59Z
2020-06-01T11:50:19Z,42.805,6.029,13.2970,4.59971,2469.97,2020-6-01T13:51:02Z
2020-06-01T11:53:22Z,42.805,6.029,13.2969,4.59971,2469.97,2020-6-01T13:54:05Z
2020-06-01T11:56:25Z,42.805,6.029,13.2969,4.59971,2469.937,2020-6-01T13:57:09Z
2020-06-01T11:59:29Z,42.805,6.029,13.2968,4.59972,2469.947,2020-6-01T14:00:12Z
2020-06-01T12:02:32Z,42.805,6.029,13.2971,4.59973,2469.947,2020-6-01T14:03:15Z
2020-06-01T12:05:35Z,42.805,6.029,13.2971,4.59972,2469.97,2020-6-01T14:06:19Z
2020-06-01T12:08:39Z,42.805,6.029,13.2969,4.59973,2469.947,2020-6-01T14:09:22Z
2020-06-01T12:11:42Z,42.805,6.029,13.2971,4.59971,2469.97,2020-6-01T14:12:25Z
2020-06-01T12:14:45Z,42.805,6.029,13.2967,4.59971,2469.984,2020-6-01T14:15:28Z
2020-06-01T12:17:48Z,42.805,6.029,13.2971,4.59971,2469.984,2020-6-01T14:18:31Z
2020-06-01T12:20:51Z,42.805,6.029,13.2972,4.59971,2469.993,2020-6-01T14:21:35Z
2020-06-01T12:23:55Z,42.805,6.029,13.2967,4.59971,2469.97,2020-6-01T14:24:38Z
2020-06-01T12:26:58Z,42.805,6.029,13.2971,4.59970,2469.993,2020-6-01T14:27:41Z
2020-06-01T12:30:01Z,42.805,6.029,13.2971,4.59970,2470.017,2020-6-01T14:30:44Z
2020-06-01T12:33:04Z,42.805,6.029,13.2970,4.59971,2469.993,2020-6-01T14:33:48Z
2020-06-01T12:36:08Z,42.805,6.029,13.2969,4.59972,2470.007,2020-6-01T14:36:51Z
2020-06-01T12:39:11Z,42.805,6.029,13.2974,4.59972,2470.007,2020-6-01T14:39:54Z
2020-06-01T12:42:14Z,42.805,6.029,13.2971,4.59973,2469.993,2020-6-01T14:42:57Z
2020-06-01T12:45:17Z,42.805,6.029,13.2971,4.59971,2469.993,2020-6-01T14:46:01Z
2020-06-01T12:48:21Z,42.805,6.029,13.2971,4.59972,2469.993,2020-6-01T14:49:04Z
2020-06-01T12:51:24Z,42.805,6.029,13.2969,4.59971,2469.993,2020-6-01T14:52:07Z
2020-06-01T12:54:27Z,42.805,6.029,13.2971,4.59972,2470.017,2020-6-01T14:55:10Z
2020-06-01T12:57:30Z,42.805,6.029,13.2971,4.59972,2470.007,2020-6-01T14:58:14Z
2020-06-01T13:00:34Z,42.805,6.029,13.2968,4.59971,2470.007,2020-6-01T15:01:17Z
2020-06-01T13:03:37Z,42.805,6.029,13.2968,4.59971,2469.993,2020-6-01T15:04:20Z
2020-06-01T13:06:40Z,42.805,6.029,13.2968,4.59971,2470.017,2020-6-01T15:07:23Z
2020-06-01T13:09:43Z,42.805,6.029,13.2967,4.59971,2470.053,2020-6-01T15:10:27Z
2020-06-01T13:12:46Z,42.805,6.029,13.2971,4.59971,2470.017,2020-6-01T15:13:30Z
2020-06-01T13:15:50Z,42.805,6.029,13.2971,4.59973,2470.007,2020-6-01T15:16:33Z
2020-06-01T13:18:53Z,42.805,6.029,13.2968,4.59971,2470.017,2020-6-01T15:19:36Z
2020-06-01T13:21:56Z,42.805,6.029,13.2969,4.59971,2469.993,2020-6-01T15:22:40Z
2020-06-01T13:24:59Z,42.805,6.029,13.2970,4.59972,2470.03,2020-6-01T15:25:43Z
2020-06-01T13:28:03Z,42.805,6.029,13.2971,4.59971,2470.03,2020-6-01T15:28:46Z
2020-06-01T13:31:06Z,42.805,6.029,13.2970,4.59972,2470.03,2020-6-01T15:31:49Z
2020-06-01T13:34:09Z,42.805,6.029,13.2969,4.59971,2470.017,2020-6-01T15:34:52Z
2020-06-01T13:37:12Z,42.805,6.029,13.2972,4.59971,2470.077,2020-6-01T15:37:56Z
2020-06-01T13:40:16Z,42.805,6.029,13.2971,4.59973,2470.017,2020-6-01T15:40:59Z
2020-06-01T13:43:19Z,42.805,6.029,13.2970,4.59972,2470.04,2020-6-01T15:44:02Z
2020-06-01T13:46:22Z,42.805,6.029,13.2969,4.59971,2470.053,2020-6-01T15:47:05Z
2020-06-01T13:49:25Z,42.805,6.029,13.2974,4.59971,2470.04,2020-6-01T15:50:09Z
2020-06-01T13:52:28Z,42.805,6.029,13.2968,4.59973,2469.993,2020-6-01T15:53:12Z
2020-06-01T13:55:32Z,42.805,6.029,13.2968,4.59971,2470.03,2020-6-01T15:56:15Z
2020-06-01T13:58:35Z,42.805,6.029,13.2972,4.59972,2470.007,2020-6-01T15:59:18Z
2020-06-01T14:01:38Z,42.805,6.029,13.2968,4.59973,2470.04,2020-6-01T16:02:22Z
2020-06-01T14:04:41Z,42.805,6.029,13.2974,4.59972,2470.03,2020-6-01T16:05:25Z
2020-06-01T14:07:45Z,42.805,6.029,13.2973,4.59973,2470.063,2020-6-01T16:08:28Z
2020-06-01T14:10:48Z,42.805,6.029,13.2967,4.59972,2470.017,2020-6-01T16:11:31Z
2020-06-01T14:13:51Z,42.805,6.029,13.2968,4.59973,2470.063,2020-6-01T16:14:34Z
2020-06-01T14:16:54Z,42.805,6.029,13.2971,4.59973,2470.053,2020-6-01T16:17:38Z
2020-06-01T14:19:58Z,42.805,6.029,13.2970,4.59973,2470.04,2020-6-01T16:20:41Z
2020-06-01T14:23:01Z,42.805,6.029,13.2973,4.59973,2470.04,2020-6-01T16:23:44Z
2020-06-01T14:26:04Z,42.805,6.029,13.2969,4.59972,2470.053,2020-6-01T16:26:47Z
2020-06-01T14:29:07Z,42.805,6.029,13.2971,4.59972,2470.04,2020-6-01T16:29:51Z
2020-06-01T14:32:11Z,42.805,6.029,13.2969,4.59973,2470.087,2020-6-01T16:32:54Z
2020-06-01T14:35:14Z,42.805,6.029,13.2971,4.59971,2470.04,2020-6-01T16:35:58Z
2020-06-01T14:38:17Z,42.805,6.029,13.2971,4.59971,2470.053,2020-6-01T16:39:01Z
2020-06-01T14:41:21Z,42.805,6.029,13.2968,4.59971,2470.077,2020-6-01T16:42:04Z
2020-06-01T14:44:24Z,42.805,6.029,13.2972,4.59972,2470.063,2020-6-01T16:45:07Z
2020-06-01T14:47:27Z,42.805,6.029,13.2968,4.59973,2470.1,2020-6-01T16:48:10Z
2020-06-01T14:50:30Z,42.805,6.029,13.2971,4.59973,2470.063,2020-6-01T16:51:14Z
2020-06-01T14:53:34Z,42.805,6.029,13.2971,4.59971,2470.04,2020-6-01T16:54:17Z
2020-06-01T14:56:37Z,42.805,6.029,13.2968,4.59972,2470.1,2020-6-01T16:57:20Z
2020-06-01T14:59:40Z,42.805,6.029,13.2971,4.59973,2470.1,2020-6-01T17:00:24Z
2020-06-01T15:02:44Z,42.805,6.029,13.2965,4.59972,2470.053,2020-6-01T17:03:27Z
2020-06-01T15:05:47Z,42.805,6.029,13.2973,4.59971,2470.087,2020-6-01T17:06:30Z
2020-06-01T15:08:50Z,42.805,6.029,13.2972,4.59971,2470.063,2020-6-01T17:09:33Z
2020-06-01T15:11:53Z,42.805,6.029,13.2968,4.59972,2470.077,2020-6-01T17:12:37Z
2020-06-01T15:14:56Z,42.805,6.029,13.2971,4.59972,2470.053,2020-6-01T17:15:40Z
2020-06-01T15:18:00Z,42.805,6.029,13.2975,4.59972,2470.063,2020-6-01T17:18:43Z
2020-06-01T15:21:03Z,42.805,6.029,13.2969,4.59971,2470.063,2020-6-01T17:21:46Z
2020-06-01T15:24:06Z,42.805,6.029,13.2969,4.59971,2470.063,2020-6-01T17:24:50Z
2020-06-01T15:27:10Z,42.805,6.029,13.2969,4.59971,2470.1,2020-6-01T17:27:53Z
2020-06-01T15:30:13Z,42.805,6.029,13.2974,4.59973,2470.1,2020-6-01T17:30:56Z
2020-06-01T15:33:16Z,42.805,6.029,13.2969,4.59972,2470.063,2020-6-01T17:33:59Z